Location: Unspecified
(52.4292°N, 19.3359°E)
Time: 00:38:29
(UTC+02:00)

SR - Pass Details

Date: 01 June 2024
Orbit: 580 x 858 km, 66.7° (Epoch: 12 June)

Event Time Altitude Azimuth Distance (km) Brightness Sun altitude
Rises 20:42:11 0° 307° (NW) 2,983 ? 0.8°
Reaches altitude 10° 20:45:44 10° 334° (NNW) 2,013 ? 0.4°
Maximum altitude 20:47:56 13° 4° (N) 1,770 ? 0.1°
Drops below altitude 10° 20:50:05 10° 34° (NNE) 1,956 ? -0.2°
Sets 20:53:26 0° 62° (ENE) 2,826 ? -0.6°
